Mankato, MN

10:03 PM CST on November 19, 2019 (GMT -0600)
Mankato Regional

Weather History for KMKT - September, 2019

Change the Weather History Date:

Saturday, September 14, 2019

  Actual Average Record
Temperature  
Mean Temperature 62 °F -  
Max Temperature 75 °F 70 °F 87 °F (2017)
Min Temperature 50 °F 51 °F 35 °F (1996)
Degree Days  
Heating Degree Days 2    
Growing Degree Days 12 (Base 50)    
Moisture  
Dew Point 60 °F    
Average Humidity 87    
Maximum Humidity 100    
Minimum Humidity 64    
Precipitation  
Precipitation 0.00 in - - ()
Sea Level Pressure  
Sea Level Pressure 30.03 in    
Wind  
Wind Speed 6 mph ()    
Max Wind Speed 15 mph    
Max Gust Speed 22 mph    
Visibility 10.0 miles    
Events      
Averages and records for this station are not official NWS values.
T = Trace of Precipitation, MM = Missing Value Source: Averaged Metar Reports

Daily Weather History Graph

Daily Weather History Graph

Search for Another Location

Airport or City:

Astronomy

Sep. 14, 2019 Rise Set
Actual Time 6:53 AM CDT 7:28 PM CDT
Civil Twilight 6:24 AM CDT 7:57 PM CDT
Nautical Twilight 5:49 AM CDT 8:31 PM CDT
Astronomical Twilight 5:13 AM CDT 9:07 PM CDT
Moon 8:09 PM CDT (9/14) 7:06 AM CDT (9/14)
Length of Visible Light 13h 33m
Length of Day
12h 34m
Full, 100% of the Moon is Illuminated
Sep 14
Full
Sep 21
Last Quarter
Sep 28
New
Oct 5
First Quarter
Oct 13
Full

Hourly Weather History & Observations

Time (CDT) Temp. Dew Point Humidity Pressure Visibility Wind Dir Wind Speed Gust Speed Precip Events Conditions
12:56 AM 52.0 °F 52.0 °F 100% 30.13 in 10.0 mi SSW 5.8 mph - N/A   Clear
1:56 AM 52.0 °F 51.1 °F 97% 30.14 in 10.0 mi SSW 5.8 mph - N/A   Clear
2:56 AM 51.1 °F 51.1 °F 100% 30.13 in 10.0 mi SSW 4.6 mph - N/A   Clear
3:56 AM 52.0 °F 51.1 °F 97% 30.13 in 10.0 mi SSE 8.1 mph - N/A   Clear
4:56 AM 50.0 °F 50.0 °F 100% 30.13 in 10.0 mi SSE 6.9 mph - N/A   Clear
5:56 AM 51.1 °F 51.1 °F 100% 30.12 in 10.0 mi SSE 6.9 mph - N/A   Clear
6:56 AM 50.0 °F 50.0 °F 100% 30.11 in 10.0 mi SE 6.9 mph - N/A   Scattered Clouds
7:56 AM 54.0 °F 53.1 °F 97% 30.10 in 10.0 mi SE 6.9 mph - N/A   Mostly Cloudy
8:56 AM 57.0 °F 55.0 °F 93% 30.09 in 10.0 mi SE 6.9 mph - N/A   Mostly Cloudy
9:56 AM 61.0 °F 57.0 °F 87% 30.08 in 10.0 mi SE 12.7 mph - N/A   Mostly Cloudy
10:56 AM 64.9 °F 57.9 °F 78% 30.06 in 10.0 mi SE 8.1 mph - N/A   Mostly Cloudy
11:56 AM 70.0 °F 61.0 °F 73% 30.05 in 10.0 mi South 11.5 mph - N/A   Mostly Cloudy
12:56 PM 73.9 °F 63.0 °F 68% 30.04 in 10.0 mi South 8.1 mph - N/A   Overcast
1:56 PM 75.0 °F 62.1 °F 64% 30.00 in 10.0 mi South 15.0 mph 19.6 mph 0.00 in   Partly Cloudy
2:56 PM 75.9 °F 63.0 °F 64% 29.97 in 10.0 mi South 15.0 mph 21.9 mph N/A   Scattered Clouds
3:56 PM 73.0 °F 64.0 °F 73% 29.95 in 10.0 mi SSE 5.8 mph - N/A   Overcast
4:56 PM 75.9 °F 66.0 °F 71% 29.94 in 10.0 mi SW 6.9 mph - N/A   Overcast
5:56 PM 73.9 °F 66.0 °F 76% 29.94 in 10.0 mi South 6.9 mph - N/A   Overcast
6:56 PM 73.0 °F 66.9 °F 81% 29.97 in 10.0 mi SW 6.9 mph - N/A   Overcast
7:30 PM 71.6 °F 66.2 °F 83% 29.97 in 10.0 mi SW 3.5 mph - N/A   Overcast
7:53 PM 69.8 °F 66.2 °F 88% 29.97 in 10.0 mi SW 3.5 mph - N/A   Overcast
7:56 PM 70.0 °F 66.9 °F 90% 29.98 in 10.0 mi SSW 4.6 mph - N/A   Overcast
8:56 PM 70.0 °F 66.9 °F 90% 29.96 in 10.0 mi South 5.8 mph - N/A   Overcast
9:40 PM 69.8 °F 66.2 °F 88% 29.97 in 10.0 mi South 5.8 mph - N/A   Mostly Cloudy
9:56 PM 69.1 °F 66.9 °F 93% 29.98 in 10.0 mi South 5.8 mph - N/A   Mostly Cloudy
11:56 PM 64.0 °F 64.0 °F 100% 29.96 in 10.0 mi SSE 4.6 mph - N/A   Clear